Wind_Speed
26 25 23 23 23 23 23 20 20 20 20 19 17 15 14 14 14 13 12 12 12 13 13 12 11 10 10 9 9 9 9 9 9 9 9 8 8 7 7 7 6 6
26 26 24 24 24 25 24 23 21 21 21 21 20 18 17 16 16 15 14 13 12 12 13 13 13 11 11 10 9 10 10 10 10 10 9 9 8 7 7 7 7 7
25 26 26 25 24 25 25 24 23 22 22 23 23 22 20 19 18 17 16 15 14 14 14 14 14 13 12 11 10 10 11 11 10 10 10 9 9 8 8 8 8 8
26 26 26 24 24 24 25 25 24 23 23 24 24 24 23 21 20 18 18 16 16 16 15 15 16 15 14 13 13 12 12 12 12 11 11 10 9 9 9 8 9 9
26 26 26 25 24 25 26 27 26 24 23 23 24 24 24 23 22 20 19 18 18 17 17 17 17 17 16 15 14 14 13 13 13 12 12 11 11 11 10 9 10 10
27 27 26 26 25 26 27 27 27 26 24 23 23 24 24 24 23 22 21 20 19 19 18 18 18 18 18 17 16 16 15 15 14 14 13 13 13 12 12 11 11 11
29 28 27 27 26 27 27 27 27 27 26 24 24 24 24 24 24 22 21 21 21 20 19 19 19 19 19 19 18 18 17 17 16 16 15 15 15 14 14 13 12 12
29 29 28 28 28 28 28 28 28 28 27 27 26 25 24 24 24 22 21 22 23 22 21 20 20 19 19 19 19 18 18 18 18 18 17 17 16 16 15 15 15 14
30 30 30 30 29 29 29 28 28 28 28 29 28 26 25 25 24 23 22 21 22 23 22 21 21 21 21 20 19 19 19 19 19 19 19 19 18 17 17 17 17 16
31 31 31 31 31 30 30 29 28 28 29 29 29 28 28 26 25 25 24 23 22 23 23 22 22 22 22 21 20 19 19 19 19 19 20 20 20 20 19 19 19 19
31 31 31 32 31 31 30 30 29 29 29 29 29 29 29 28 27 26 26 25 24 23 23 23 23 23 23 22 21 20 20 19 20 20 21 21 22 22 22 21 21 20
31 31 31 30 30 30 30 30 30 30 30 29 29 29 29 29 28 28 27 27 26 24 24 24 23 24 23 22 22 21 21 20 20 20 21 22 23 23 24 23 22 22
31 30 30 29 29 29 29 30 30 30 30 29 29 29 29 29 29 28 28 27 27 26 26 25 24 25 24 23 22 22 22 21 20 20 20 21 22 23 24 24 24 23
29 30 30 29 28 28 29 29 30 30 30 30 29 29 29 29 28 28 27 27 27 27 27 26 26 26 25 25 24 23 23 22 21 20 19 20 20 22 23 24 24 24
29 30 30 30 30 29 29 29 29 30 29 29 29 29 28 28 28 27 27 27 27 27 28 28 28 27 26 25 25 24 23 22 21 20 19 19 19 20 21 22 23 23
29 29 30 31 31 31 30 30 30 29 29 29 29 28 28 28 27 28 27 27 27 27 28 28 28 28 26 25 25 25 24 23 22 20 19 19 19 19 20 21 21 21
29 30 30 30 31 31 31 30 30 30 30 29 29 28 28 28 28 28 27 27 27 27 28 28 28 27 26 25 25 25 25 25 24 22 20 19 19 19 19 19 19 19
30 30 30 30 30 30 31 30 31 31 30 30 29 28 28 28 28 28 27 27 27 27 28 28 27 26 25 24 25 25 25 26 25 23 22 21 20 19 19 18 18 17
30 30 30 30 30 30 30 30 31 31 31 30 29 29 29 29 28 27 27 26 27 27 28 28 26 25 24 24 24 25 25 26 26 25 23 22 21 20 19 19 18 17
31 31 31 31 30 30 31 31 31 31 30 30 29 29 29 29 28 28 27 26 26 27 27 27 26 25 24 24 24 24 25 26 26 25 24 24 23 22 21 20 19 18
33 32 32 31 31 31 31 32 32 31 30 29 29 29 29 29 29 29 28 26 26 26 26 26 25 24 24 24 23 23 24 25 26 26 26 25 24 24 23 22 21 20
34 34 34 33 33 33 32 32 32 31 31 30 29 29 28 28 29 29 29 28 27 26 26 26 25 24 24 24 24 24 24 25 26 27 27 26 26 25 24 23 22 21
35 36 36 35 35 35 34 33 33 32 32 31 30 29 28 27 28 29 29 29 28 27 26 25 25 24 24 24 24 24 25 25 26 27 28 28 27 25 25 24 23 22
33 35 36 37 37 36 35 34 34 33 33 32 32 31 29 27 27 27 28 29 29 28 27 26 25 25 25 24 24 24 25 26 26 27 27 28 27 26 25 24 23 22
31 32 34 35 38 38 37 36 35 34 34 33 33 32 31 29 28 27 28 28 28 28 27 26 26 25 26 26 25 26 26 27 27 27 27 27 26 26 25 25 24 23
32 31 31 32 35 37 38 38 37 36 35 34 34 34 32 31 30 29 28 28 27 27 27 27 26 26 26 26 27 27 28 28 29 29 28 27 26 25 25 25 25 24
Wind_Direction
217 217 214 210 209 213 218 217 211 209 212 217 218 212 207 208 206 203 202 200 199 199 199 200 199 195 189 184 178 169 162 159 158 160 162 161 163 167 165 170 179 187
215 216 215 211 207 209 215 216 213 210 210 212 215 216 213 212 210 208 207 206 206 207 205 205 205 201 197 194 188 179 172 167 166 169 171 172 172 169 168 171 172 165
212 215 216 213 208 207 212 216 214 210 209 208 210 214 216 216 212 209 210 209 208 211 211 210 210 208 204 202 199 192 183 177 177 178 178 180 178 175 175 172 167 156
210 213 216 215 211 208 210 215 217 213 208 207 208 211 214 217 216 212 211 212 211 212 214 213 212 211 209 206 204 202 195 187 186 185 185 185 181 179 180 175 166 162
210 211 214 215 214 211 210 213 216 216 212 208 208 211 214 217 218 216 214 214 213 212 213 214 213 212 211 209 207 206 204 198 193 191 191 192 189 184 184 182 173 170
210 210 211 213 214 214 214 214 215 218 217 212 209 210 214 217 218 217 217 217 217 215 213 213 213 211 212 212 211 209 209 206 201 198 197 198 198 192 188 188 186 181
209 209 209 210 211 214 215 215 215 217 218 218 215 213 213 217 218 216 215 217 220 220 216 214 214 213 212 213 213 212 212 212 208 204 202 203 203 201 196 194 194 192
208 209 209 208 209 212 213 214 215 215 216 218 220 218 215 217 219 217 214 213 218 222 221 217 215 215 214 213 213 214 215 216 215 210 208 208 207 205 203 201 200 199
209 209 209 209 209 211 212 213 215 215 215 217 220 221 220 219 220 221 219 215 215 220 223 222 219 218 218 216 215 216 217 219 220 217 215 214 213 211 209 208 207 206
211 210 210 210 210 210 211 212 214 215 216 217 218 221 222 222 221 222 224 221 218 217 221 223 222 221 221 221 219 218 219 222 224 223 221 219 218 216 215 214 211 210
212 211 211 212 211 212 211 212 213 215 217 218 218 220 223 224 223 223 224 224 223 220 220 222 223 224 224 224 224 224 224 225 226 226 226 224 222 219 218 218 216 213
213 213 214 213 213 213 213 213 214 216 218 219 219 220 222 224 225 224 223 224 225 225 223 221 222 224 226 225 226 227 227 228 228 227 227 227 226 224 221 219 219 218
214 215 216 215 215 215 214 215 216 217 219 220 220 221 222 225 226 226 224 223 224 227 227 225 223 223 225 226 225 226 227 228 230 230 229 228 229 229 227 223 221 220
215 216 218 218 217 216 216 216 218 219 221 222 222 222 222 224 227 228 227 225 224 225 227 227 227 225 224 225 225 225 226 227 230 230 230 230 229 231 232 230 227 223
216 217 219 220 219 219 217 218 218 220 222 223 225 225 225 225 227 228 229 227 225 225 226 227 229 228 226 225 226 228 228 230 231 230 230 230 230 231 232 234 233 230
218 219 220 221 222 221 220 220 220 220 222 224 225 227 227 228 228 228 228 227 226 226 226 228 229 230 229 227 227 228 231 233 234 232 230 229 228 230 232 234 236 236
219 220 221 222 223 223 223 223 222 222 223 224 225 226 227 229 229 229 228 227 227 227 228 229 230 230 231 230 229 229 230 233 235 234 232 229 226 226 228 231 234 235
220 221 222 223 224 224 225 225 225 225 225 226 226 226 228 229 230 231 230 228 228 228 228 230 230 229 230 231 231 231 232 234 235 235 233 231 229 226 225 227 229 230
221 222 223 224 225 226 226 226 227 227 227 228 228 228 228 230 232 233 232 230 230 229 229 230 230 229 229 229 229 230 231 234 235 235 233 233 233 232 229 228 228 228
220 221 222 224 225 227 228 228 229 229 229 229 230 230 230 231 233 234 234 233 231 231 231 232 231 229 230 230 229 228 229 232 234 234 233 231 232 233 233 232 231 231
218 221 223 224 224 226 228 229 231 231 232 231 230 231 232 232 233 235 237 237 234 233 233 233 232 229 229 229 228 227 228 230 233 234 233 231 231 231 233 233 234 235
218 220 224 225 225 226 227 229 231 232 233 233 232 232 233 234 234 235 236 238 238 236 234 233 231 230 229 228 227 227 228 229 232 234 235 234 233 233 234 235 236 238
219 220 223 225 226 226 227 228 230 232 234 234 235 234 234 234 235 235 237 238 240 240 237 233 229 228 229 228 227 228 230 232 234 235 238 238 238 237 238 238 239 240
221 221 222 225 227 226 228 229 230 232 234 235 237 237 237 236 237 238 239 239 241 242 241 238 232 227 226 227 227 230 233 235 237 239 241 242 242 242 242 242 241 241
225 224 223 225 227 227 229 230 231 233 234 235 238 239 240 239 239 239 240 240 242 243 244 244 240 232 227 225 226 229 233 236 239 240 242 244 246 246 246 245 244 243
229 228 227 228 227 227 229 230 231 233 234 234 237 239 241 241 240 240 240 241 243 244 245 246 245 241 235 229 227 229 231 234 237 240 242 245 248 249 249 248 248 246
Height
3213 3215 3217 3219 3221 3222 3224 3225 3227 3228 3230 3231 3232 3233 3234 3235 3235 3236 3237 3237 3238 3238 3239 3240 3241 3242 3243 3243 3244 3244 3244 3245 3245 3245 3245 3245 3246 3246 3247 3247 3248 3248
3211 3212 3214 3216 3218 3220 3222 3223 3225 3227 3228 3230 3231 3232 3233 3234 3234 3235 3236 3236 3237 3238 3238 3239 3240 3241 3242 3243 3243 3244 3244 3244 3245 3245 3245 3246 3246 3246 3247 3247 3248 3249
3209 3210 3212 3214 3216 3218 3220 3221 3223 3225 3227 3228 3230 3231 3232 3232 3233 3234 3235 3235 3236 3237 3237 3238 3239 3240 3241 3242 3242 3243 3244 3244 3245 3245 3245 3245 3246 3246 3247 3247 3248 3249
3207 3209 3210 3212 3215 3217 3218 3219 3221 3223 3225 3226 3228 3229 3230 3231 3232 3233 3234 3234 3235 3236 3237 3237 3238 3239 3240 3241 3242 3242 3243 3244 3244 3245 3245 3245 3246 3246 3247 3247 3248 3249
3205 3207 3209 3211 3213 3215 3216 3217 3218 3220 3222 3224 3226 3228 3229 3230 3230 3232 3232 3233 3234 3235 3236 3236 3237 3238 3239 3240 3240 3241 3242 3243 3244 3244 3244 3245 3245 3246 3247 3247 3248 3249
3203 3205 3206 3208 3211 3212 3214 3215 3217 3218 3220 3222 3224 3226 3227 3228 3229 3231 3232 3232 3233 3234 3235 3235 3236 3237 3238 3238 3239 3240 3241 3242 3243 3244 3244 3244 3245 3246 3246 3247 3248 3249
3201 3202 3204 3206 3208 3210 3211 3213 3215 3217 3218 3220 3221 3223 3225 3226 3228 3229 3231 3231 3232 3233 3233 3234 3235 3236 3237 3237 3238 3239 3240 3241 3242 3243 3243 3244 3244 3245 3246 3247 3248 3248
3199 3201 3202 3204 3205 3207 3209 3211 3213 3215 3217 3218 3219 3221 3222 3224 3225 3227 3229 3230 3230 3231 3232 3233 3234 3235 3235 3236 3237 3238 3239 3240 3241 3242 3243 3243 3244 3244 3245 3246 3247 3248
3197 3199 3200 3201 3202 3204 3206 3208 3211 3213 3215 3216 3217 3219 3220 3222 3223 3225 3226 3227 3228 3229 3230 3231 3232 3233 3234 3234 3235 3236 3237 3238 3239 3240 3241 3242 3243 3244 3244 3245 3246 3247
3195 3196 3197 3198 3200 3201 3203 3206 3208 3210 3212 3214 3216 3217 3218 3220 3221 3222 3223 3224 3226 3227 3228 3229 3230 3231 3232 3233 3234 3235 3236 3237 3238 3239 3240 3241 3242 3243 3243 3244 3244 3245
3192 3194 3195 3196 3198 3199 3201 3203 3205 3207 3209 3211 3213 3215 3216 3217 3219 3220 3221 3222 3223 3224 3226 3227 3228 3229 3230 3231 3232 3233 3234 3235 3236 3237 3238 3239 3240 3241 3241 3242 3243 3244
3190 3192 3193 3195 3196 3198 3199 3201 3203 3204 3206 3208 3210 3212 3214 3215 3216 3217 3219 3219 3221 3222 3223 3225 3226 3227 3228 3229 3231 3232 3232 3233 3234 3235 3236 3237 3237 3238 3240 3240 3241 3242
3188 3190 3192 3194 3195 3196 3198 3199 3201 3202 3203 3205 3207 3209 3211 3212 3214 3215 3217 3218 3219 3220 3221 3223 3224 3224 3226 3227 3228 3229 3230 3231 3232 3233 3234 3235 3235 3236 3237 3238 3239 3240
3186 3189 3191 3192 3194 3195 3196 3197 3199 3200 3201 3203 3205 3206 3208 3210 3211 3213 3215 3216 3217 3218 3219 3220 3221 3222 3223 3224 3226 3227 3228 3229 3230 3231 3232 3233 3233 3234 3235 3236 3237 3238
3185 3187 3189 3190 3192 3193 3194 3195 3197 3198 3199 3201 3202 3204 3206 3207 3209 3211 3212 3213 3215 3216 3217 3218 3219 3220 3221 3222 3224 3225 3226 3227 3228 3229 3230 3231 3231 3232 3233 3233 3235 3236
3184 3185 3187 3188 3189 3191 3192 3193 3195 3196 3197 3198 3200 3202 3203 3205 3207 3208 3209 3211 3212 3214 3215 3216 3216 3218 3219 3221 3222 3223 3224 3225 3226 3227 3228 3229 3229 3230 3231 3231 3232 3233
3181 3183 3184 3186 3187 3189 3190 3192 3193 3194 3195 3196 3198 3199 3201 3203 3204 3205 3207 3208 3210 3211 3212 3213 3214 3216 3218 3219 3220 3221 3222 3223 3224 3225 3226 3226 3227 3228 3229 3230 3230 3231
3178 3180 3182 3183 3185 3187 3188 3190 3191 3192 3193 3194 3195 3197 3199 3200 3201 3203 3204 3206 3207 3209 3210 3211 3212 3214 3216 3217 3219 3220 3220 3221 3222 3223 3223 3224 3225 3226 3227 3228 3228 3229
3175 3177 3179 3181 3183 3185 3186 3188 3188 3189 3190 3191 3193 3195 3197 3198 3199 3200 3202 3204 3205 3206 3207 3209 3210 3212 3214 3215 3216 3218 3219 3219 3220 3221 3222 3222 3223 3224 3225 3225 3226 3227
3171 3173 3175 3178 3180 3182 3184 3185 3186 3187 3188 3190 3191 3193 3194 3195 3197 3198 3200 3201 3202 3204 3205 3206 3208 3210 3211 3213 3214 3215 3216 3217 3218 3219 3219 3220 3221 3222 3222 3223 3224 3225
3168 3170 3172 3175 3177 3179 3181 3182 3183 3185 3186 3188 3189 3190 3191 3193 3195 3196 3197 3199 3200 3202 3203 3204 3206 3208 3209 3210 3212 3213 3214 3215 3215 3216 3217 3218 3219 3219 3220 3221 3222 3223
3164 3166 3169 3171 3174 3176 3177 3179 3180 3182 3184 3186 3187 3188 3189 3190 3192 3193 3194 3196 3198 3199 3200 3202 3204 3206 3207 3208 3210 3211 3212 3212 3213 3214 3214 3215 3217 3218 3218 3219 3220 3220
3161 3163 3165 3168 3170 3172 3174 3176 3178 3179 3181 3183 3184 3185 3187 3188 3189 3191 3192 3194 3195 3196 3198 3200 3202 3203 3205 3206 3208 3209 3209 3210 3210 3211 3212 3213 3214 3216 3216 3217 3218 3219
3157 3159 3161 3164 3166 3168 3170 3173 3175 3177 3178 3180 3181 3183 3184 3186 3187 3189 3190 3191 3192 3194 3195 3197 3199 3201 3203 3204 3205 3206 3207 3207 3208 3209 3210 3211 3212 3213 3214 3215 3216 3217
3153 3155 3157 3160 3162 3165 3167 3169 3172 3174 3176 3177 3178 3180 3182 3183 3185 3186 3187 3188 3190 3191 3193 3194 3196 3198 3200 3201 3203 3204 3204 3205 3205 3206 3207 3208 3209 3211 3211 3212 3213 3214
3148 3150 3153 3156 3159 3162 3164 3166 3168 3170 3172 3174 3175 3177 3178 3180 3182 3183 3184 3186 3187 3188 3190 3191 3193 3195 3197 3199 3200 3201 3201 3202 3202 3203 3204 3206 3207 3208 3209 3209 3210 3211